Time-05,TemperatureF,Dew PointF,Humidity,Sea Level PressureIn,VisibilityMPH,Wind Direction,Wind SpeedMPH,Gust SpeedMPH,PrecipitationIn,Events,Conditions,WindDirDegrees,DateUTC
12:00 AM,75.2,75.2,100,29.96,5.0,Calm,Calm,-,N/A,Fog,Fog,0,2012-11-18 05:00:00
5:00 AM,75.2,75.2,100,29.93,3.1,Calm,Calm,-,N/A,Fog,Patches of Fog,0,2012-11-18 10:00:00
5:30 AM,-9999,-9999,N/A,29.95,5.0,North,3.5,-,N/A,Fog,Fog,360,2012-11-18 10:30:00
6:00 AM,73.4,73.4,100,29.96,5.0,North,6.9,-,N/A,Fog,Fog,360,2012-11-18 11:00:00
7:00 AM,74,73,96,29.89,5,,2.2,,,Fog,Light Fog,,2012-11-18 12:00:00
7:00 AM,73.4,73.4,100,29.99,5.0,Variable,2.3,-,N/A,Fog,Fog,0,2012-11-18 12:00:00
8:00 AM,75.2,73.4,94,30.02,3.7,Variable,2.3,-,N/A,Fog,Fog,0,2012-11-18 13:00:00
9:00 AM,77.0,73.4,89,30.03,3.7,Calm,Calm,-,N/A,Fog,Fog,0,2012-11-18 14:00:00
9:30 AM,-9999,-9999,N/A,30.02,5.0,Variable,2.3,-,N/A,Fog,Fog,0,2012-11-18 14:30:00
10:00 AM,80,74,76,29.90,5,Calm,Calm,,,Fog,Light Fog,,2012-11-18 15:00:00
10:00 AM,80.6,73.4,79,30.01,5.0,Calm,Calm,-,N/A,Fog,Fog,0,2012-11-18 15:00:00
11:00 AM,82.4,73.4,74,29.98,6.2,Calm,Calm,-,N/A,,Scattered Clouds,0,2012-11-18 16:00:00
12:00 PM,86.0,73.4,66,29.93,6.2,Variable,2.3,-,N/A,,Scattered Clouds,0,2012-11-18 17:00:00
1:00 PM,88,74,54,29.77,11,Calm,Calm,,,,Partly Cloudy,,2012-11-18 18:00:00
1:00 PM,87.8,73.4,62,29.88,6.2,Calm,Calm,-,N/A,,Scattered Clouds,0,2012-11-18 18:00:00
2:00 PM,89.6,73.4,59,29.84,6.2,North,4.6,-,N/A,,Scattered Clouds,360,2012-11-18 19:00:00
3:00 PM,87.8,73.4,62,29.83,6.2,North,4.6,-,N/A,,Scattered Clouds,360,2012-11-18 20:00:00
4:00 PM,87,74,58,29.71,12,North,6.7,,,,Partly Cloudy,0,2012-11-18 21:00:00
4:00 PM,86.0,73.4,66,29.83,6.2,North,6.9,-,N/A,,Scattered Clouds,360,2012-11-18 21:00:00
5:00 PM,84.2,71.6,66,29.84,6.2,North,4.6,-,N/A,,Scattered Clouds,360,2012-11-18 22:00:00
6:00 PM,82.4,73.4,74,29.86,6.2,North,4.6,-,N/A,,Scattered Clouds,360,2012-11-18 23:00:00
7:00 PM,81,74,75,29.81,11,Calm,Calm,,,,Partly Cloudy,,2012-11-19 00:00:00
7:00 PM,80.6,75.2,84,29.91,6.2,Calm,Calm,-,N/A,,Scattered Clouds,0,2012-11-19 00:00:00
8:00 PM,80.6,75.2,84,29.94,6.2,Calm,Calm,-,N/A,,Scattered Clouds,0,2012-11-19 01:00:00
9:00 PM,78.8,75.2,89,29.96,6.2,Calm,Calm,-,N/A,,Scattered Clouds,0,2012-11-19 02:00:00
10:00 PM,79,73,77,29.86,11,Calm,Calm,,,,Partly Cloudy,,2012-11-19 03:00:00
11:00 PM,78.8,73.4,83,29.97,6.2,Calm,Calm,-,N/A,,Scattered Clouds,0,2012-11-19 04:00:00